2025-138A

Last updated on Wed Jul 02 2025 00:02:08 GMT+0000 (Coordinated Universal Time)

1 64621U 25138A 25182.58002078 .00002097 00000+0 11786-3 0 9999 2 64621 97.4354 187.0906 0013035 285.5751 74.4018 15.14321368 737
UTC large
Height (km)
Speed (km/s)
/
Latitude / Longitude
Inclination (degrees)
Orbital Period (minutes)
Azimuth
Elevation
Range (km)
Doppler Factor

Next 0 passes for location: London (51.5072 / 0.1276)

Sorry there are no passes over London.